Location: Newark
(58.9986°N, 38.5006°E)
Time: 09:23:03
(UTC+00:00)

N. Korean satellite - Pass Details

Date: 15 December 2019
Orbit: 454 x 507 km, 97.2° (Epoch: 24 January)

Event Time Altitude Azimuth Distance (km) Brightness Sun altitude
Rises 04:21:46 0° 11° (N) 2,558 10.1 -12.4°
Reaches altitude 10° 04:23:56 10° 3° (N) 1,664 9.1 -12.1°
Maximum altitude 04:27:15 37° 295° (WNW) 749 7.0 -11.7°
Drops below altitude 10° 04:30:30 10° 227° (SW) 1,625 9.0 -11.3°
Sets 04:32:36 0° 219° (SW) 2,489 10.1 -11.1°
